| time (UTC) | temp F | wind direction | speed knots | gust knots | rain 1hr in | rain 24hr in | rain mn in | humidity % | barometer mb |
| 20260507040002 | 34 | 350 | 0.0 | 0.9 | 0.00 | 0.28 | 0.00 | 96 | 1011.7 |
| 20260507034506 | 34 | 350 | 0.0 | 0.9 | 0.00 | 0.28 | 0.00 | 96 | 1011.6 |
| 20260507033002 | 35 | 350 | 0.9 | 3.5 | 0.00 | 0.28 | 0.00 | 96 | 1011.6 |
| 20260507031605 | 34 | 350 | 0.9 | 1.7 | 0.00 | 0.28 | 0.00 | 96 | 1011.5 |
| 20260507030159 | 35 | 350 | 0.9 | 1.7 | 0.00 | 0.28 | 0.00 | 96 | 1011.5 |
| 20260507024604 | 35 | 350 | 0.0 | 0.9 | 0.00 | 0.28 | 0.00 | 96 | 1011.6 |
| 20260507023110 | 35 | 350 | 0.0 | 1.7 | 0.00 | 0.28 | 0.00 | 96 | 1011.5 |
| 20260507021555 | 35 | 350 | 0.9 | 1.7 | 0.00 | 0.28 | 0.00 | 96 | 1011.5 |
| 20260507020053 | 36 | 350 | 0.0 | 0.9 | 0.00 | 0.28 | 0.00 | 96 | 1011.4 |
| 20260507014604 | 36 | 350 | 0.0 | 0.9 | 0.00 | 0.28 | 0.00 | 96 | 1011.4 |
| 20260507013110 | 36 | 350 | 0.9 | 4.3 | 0.00 | 0.28 | 0.00 | 96 | 1011.3 |
| 20260507011550 | 36 | 350 | 0.9 | 3.5 | 0.00 | 0.28 | 0.00 | 96 | 1011.3 |
| 20260507010049 | 36 | 350 | 1.7 | 3.5 | 0.00 | 0.28 | 0.00 | 96 | 1011.3 |
| 20260507004549 | 36 | 350 | 0.9 | 4.3 | 0.00 | 0.28 | 0.00 | 96 | 1011.3 |
| 20260507003047 | 36 | 350 | 1.7 | 4.3 | 0.00 | 0.28 | 0.00 | 96 | 1011.2 |
| 20260507001606 | 36 | 350 | 0.9 | 2.6 | 0.00 | 0.28 | 0.00 | 96 | 1011.2 |
| 20260507000048 | 36 | 350 | 0.0 | 3.5 | 0.00 | 0.28 | 0.00 | 96 | 1011.1 |
| 20260506234545 | 36 | 350 | 0.0 | 3.5 | 0.00 | 0.30 | 0.00 | 96 | 1011.1 |
| 20260506233046 | 36 | 350 | 0.9 | 1.7 | 0.00 | 0.30 | 0.00 | 96 | 1011.1 |
| 20260506231546 | 36 | 350 | 0.9 | 1.7 | 0.00 | 0.30 | 0.00 | 96 | 1011.1 |
| 20260506230039 | 36 | 350 | 0.0 | 3.5 | 0.00 | 0.30 | 0.00 | 96 | 1011.0 |
| 20260506224537 | 37 | 350 | 0.0 | 1.7 | 0.00 | 0.31 | 0.00 | 96 | 1011.0 |
| 20260506223036 | 37 | 350 | 0.9 | 1.7 | 0.00 | 0.31 | 0.00 | 96 | 1011.0 |
| 20260506221535 | 37 | 350 | 1.7 | 2.6 | 0.00 | 0.31 | 0.00 | 96 | 1011.0 |
| 20260506220031 | 37 | 350 | 0.0 | 1.7 | 0.00 | 0.31 | 0.00 | 96 | 1010.9 |
| 20260506214531 | 37 | 350 | 0.9 | 3.5 | 0.00 | 0.31 | 0.31 | 96 | 1010.9 |
| 20260506213030 | 37 | 350 | 0.0 | 1.7 | 0.00 | 0.31 | 0.31 | 96 | 1010.8 |
| 20260506211529 | 37 | 350 | 0.9 | 3.5 | 0.00 | 0.31 | 0.31 | 96 | 1010.8 |
| 20260506210036 | 37 | 350 | 0.0 | 1.7 | 0.00 | 0.31 | 0.31 | 95 | 1010.7 |
| 20260506204528 | 37 | 351 | 0.0 | 3.5 | 0.00 | 0.31 | 0.31 | 96 | 1010.7 |
| 20260506203031 | 37 | 350 | 0.0 | 3.5 | 0.00 | 0.31 | 0.31 | 95 | 1010.7 |
| 20260506201527 | 37 | 288 | 0.9 | 1.7 | 0.00 | 0.31 | 0.31 | 96 | 1010.4 |
| 20260506200026 | 37 | 288 | 0.0 | 3.5 | 0.00 | 0.31 | 0.31 | 96 | 1010.2 |
| 20260506194525 | 37 | 288 | 2.6 | 4.3 | 0.00 | 0.31 | 0.31 | 95 | 1010.1 |
| 20260506193023 | 37 | 279 | 1.7 | 4.3 | 0.00 | 0.31 | 0.31 | 95 | 1009.8 |
| 20260506191521 | 37 | 279 | 0.9 | 3.5 | 0.00 | 0.31 | 0.31 | 95 | 1009.5 |
| 20260506190020 | 38 | 279 | 0.0 | 1.7 | 0.00 | 0.31 | 0.31 | 95 | 1009.4 |
| 20260506184520 | 38 | 279 | 1.7 | 5.2 | 0.00 | 0.32 | 0.31 | 95 | 1009.2 |
| 20260506183016 | 38 | 271 | 2.6 | 5.2 | 0.00 | 0.32 | 0.31 | 95 | 1008.9 |
| 20260506181516 | 38 | 262 | 0.9 | 3.5 | 0.00 | 0.32 | 0.31 | 94 | 1008.6 |
| 20260506180020 | 39 | 261 | 2.6 | 4.3 | 0.00 | 0.32 | 0.31 | 94 | 1008.6 |
| 20260506174510 | 40 | 261 | 1.7 | 3.5 | 0.00 | 0.32 | 0.31 | 93 | 1008.4 |
| 20260506173010 | 40 | 261 | 0.9 | 2.6 | 0.00 | 0.32 | 0.31 | 93 | 1008.4 |
| 20260506171509 | 41 | 261 | 0.0 | 4.3 | 0.00 | 0.32 | 0.31 | 92 | 1008.1 |
| 20260506170011 | 42 | 55 | 0.0 | 3.5 | 0.00 | 0.32 | 0.31 | 91 | 1008.1 |
| 20260506164508 | 42 | 55 | 0.0 | 3.5 | 0.00 | 0.32 | 0.31 | 90 | 1008.1 |
| 20260506163017 | 42 | 55 | 0.0 | 0.9 | 0.01 | 0.32 | 0.31 | 92 | 1008.2 |
| 20260506161514 | 42 | 55 | 0.0 | 3.5 | 0.01 | 0.32 | 0.31 | 93 | 1008.1 |
| 20260506160009 | 43 | 56 | 1.7 | 3.5 | 0.02 | 0.32 | 0.31 | 94 | 1008.3 |
| 20260506154505 | 43 | 56 | 0.0 | 3.5 | 0.02 | 0.32 | 0.31 | 94 | 1008.4 |
| 20260506153004 | 43 | 59 | 0.0 | 3.5 | 0.01 | 0.31 | 0.30 | 94 | 1008.3 |
| 20260506151503 | 43 | 55 | 0.9 | 3.5 | 0.01 | 0.31 | 0.30 | 91 | 1008.2 |
| 20260506150005 | 43 | 323 | 0.9 | 3.5 | 0.00 | 0.31 | 0.28 | 92 | 1008.1 |
| 20260506144501 | 44 | 123 | 0.0 | 1.7 | 0.00 | 0.31 | 0.28 | 92 | 1007.9 |
| 20260506143001 | 43 | 123 | 0.9 | 2.6 | 0.00 | 0.31 | 0.28 | 92 | 1007.6 |
| 20260506141501 | 45 | 130 | 0.9 | 5.2 | 0.00 | 0.31 | 0.28 | 89 | 1007.6 |
| 20260506140101 | 46 | 88 | 0.0 | 4.3 | 0.00 | 0.31 | 0.28 | 86 | 1007.5 |
| 20260506140001 | 46 | 88 | 0.0 | 4.3 | 0.00 | 0.31 | 0.28 | 86 | 1007.5 |
| 20260506134619 | 46 | 175 | 0.9 | 4.3 | 0.01 | 0.31 | 0.28 | 88 | 1007.2 |
| 20260506133059 | 46 | 188 | 0.0 | 5.2 | 0.01 | 0.31 | 0.28 | 90 | 1007.4 |
| 20260506131611 | 47 | 173 | 2.6 | 6.1 | 0.02 | 0.31 | 0.28 | 90 | 1007.2 |
| 20260506130058 | 45 | 158 | 2.6 | 4.3 | 0.04 | 0.31 | 0.28 | 94 | 1007.1 |
| 20260506124557 | 44 | 96 | 0.0 | 8.7 | 0.06 | 0.31 | 0.28 | 90 | 1007.2 |
| 20260506123057 | 43 | 194 | 7.0 | 19.1 | 0.07 | 0.31 | 0.28 | 87 | 1006.8 |
| 20260506121605 | 42 | 254 | 7.0 | 15.6 | 0.07 | 0.30 | 0.28 | 88 | 1006.9 |
| 20260506120055 | 42 | 281 | 7.0 | 23.5 | 0.05 | 0.28 | 0.25 | 90 | 1006.7 |
| 20260506114554 | 42 | 254 | 7.0 | 15.6 | 0.02 | 0.26 | 0.22 | 85 | 1006.6 |
| 20260506113051 | 45 | 289 | 3.5 | 8.7 | 0.01 | 0.25 | 0.21 | 88 | 1006.3 |
| 20260506111608 | 47 | 175 | 0.9 | 5.2 | 0.00 | 0.24 | 0.20 | 91 | 1006.1 |
| 20260506110052 | 46 | 290 | 0.0 | 4.3 | 0.00 | 0.24 | 0.20 | 91 | 1006.0 |
| 20260506104549 | 45 | 96 | 0.0 | 1.7 | 0.00 | 0.24 | 0.20 | 94 | 1006.2 |
| 20260506103049 | 46 | 92 | 1.7 | 4.3 | 0.00 | 0.24 | 0.20 | 93 | 1006.4 |
| 20260506101548 | 47 | 48 | 2.6 | 6.1 | 0.00 | 0.24 | 0.20 | 94 | 1006.1 |
| 20260506100045 | 46 | 90 | 0.0 | 3.5 | 0.00 | 0.24 | 0.20 | 95 | 1006.0 |
| 20260506094543 | 44 | 175 | 1.7 | 4.3 | 0.00 | 0.26 | 0.20 | 96 | 1006.1 |
| 20260506093051 | 44 | 134 | 0.0 | 1.7 | 0.00 | 0.26 | 0.20 | 96 | 1006.0 |
| 20260506091542 | 43 | 175 | 0.0 | 3.5 | 0.00 | 0.26 | 0.20 | 96 | 1005.9 |
| 20260506090041 | 43 | 59 | 0.0 | 7.0 | 0.00 | 0.26 | 0.20 | 96 | 1005.7 |
| 20260506084540 | 45 | 71 | 1.7 | 6.1 | 0.01 | 0.26 | 0.20 | 97 | 1005.5 |
| 20260506083037 | 43 | 78 | 0.0 | 3.5 | 0.02 | 0.26 | 0.20 | 96 | 1005.3 |
| 20260506081543 | 42 | 77 | 0.9 | 2.6 | 0.02 | 0.26 | 0.20 | 96 | 1005.4 |
| 20260506073035 | 42 | 290 | 0.0 | 1.7 | 0.05 | 0.24 | 0.19 | 96 | 1004.9 |
| 20260506071534 | 41 | 300 | 0.0 | 1.7 | 0.04 | 0.24 | 0.18 | 96 | 1004.8 |
| 20260506061535 | 41 | 173 | 0.0 | 3.5 | 0.02 | 0.20 | 0.14 | 97 | 1004.3 |
| 20260506044517 | 40 | 148 | 1.7 | 6.1 | 0.05 | 0.16 | 0.06 | 97 | 1004.2 |
| 20260506043011 | 42 | 159 | 0.9 | 5.2 | 0.02 | 0.13 | 0.04 | 97 | 1004.0 |
| 20260506041507 | 42 | 34 | 0.0 | 1.7 | 0.01 | 0.12 | 0.02 | 97 | 1004.0 |